QPF
0.03 0.04 0.05 0.06 0.06 0.08 0.08 0.09 0.09 0.09 0.07 0.07 0.06 0.05 0.06 0.06 0.07 0.05 0.05 0.04 0.02 0.02 0.01 0.02 0.02 0.03 0.03 0.03 0.04 0.04 0.05 0.05 0.04 0.04 0.03 0.04 0.05 0.05
0.03 0.04 0.05 0.05 0.05 0.06 0.06 0.07 0.06 0.06 0.06 0.04 0.05 0.05 0.06 0.05 0.06 0.07 0.08 0.06 0.04 0.03 0.02 0.03 0.03 0.03 0.05 0.05 0.05 0.05 0.05 0.04 0.04 0.05 0.05 0.04 0.04 0.04
0.02 0.02 0.03 0.04 0.04 0.05 0.05 0.05 0.05 0.05 0.05 0.05 0.05 0.07 0.08 0.08 0.08 0.07 0.07 0.07 0.05 0.05 0.04 0.03 0.03 0.04 0.05 0.06 0.05 0.06 0.06 0.05 0.04 0.05 0.05 0.04 0.03 0.03
0.01 0.01 0.02 0.03 0.04 0.04 0.04 0.04 0.04 0.05 0.05 0.05 0.07 0.08 0.08 0.08 0.08 0.08 0.05 0.05 0.05 0.04 0.03 0.03 0.03 0.04 0.05 0.06 0.05 0.05 0.05 0.05 0.04 0.04 0.05 0.04 0.03 0.02
0.02 0.03 0.03 0.04 0.05 0.05 0.05 0.04 0.04 0.04 0.05 0.05 0.06 0.07 0.08 0.07 0.07 0.08 0.07 0.06 0.03 0.02 0.02 0.02 0.02 0.02 0.02 0.03 0.03 0.03 0.03 0.03 0.03 0.04 0.05 0.05 0.04 0.03
0.03 0.03 0.03 0.04 0.05 0.07 0.06 0.05 0.06 0.06 0.07 0.07 0.07 0.08 0.08 0.08 0.08 0.08 0.09 0.09 0.06 0.04 0.03 0.04 0.04 0.03 0.02 0.02 0.03 0.03 0.02 0.02 0.02 0.02 0.03 0.03 0.04 0.04
0.04 0.03 0.02 0.03 0.04 0.05 0.06 0.07 0.08 0.08 0.08 0.07 0.07 0.08 0.08 0.08 0.08 0.09 0.08 0.09 0.09 0.06 0.05 0.04 0.05 0.04 0.04 0.03 0.03 0.03 0.03 0.03 0.03 0.04 0.03 0.02 0.02 0.03
0.05 0.05 0.04 0.03 0.04 0.04 0.03 0.04 0.05 0.06 0.06 0.06 0.07 0.08 0.08 0.08 0.08 0.09 0.09 0.08 0.08 0.06 0.08 0.06 0.06 0.07 0.05 0.04 0.04 0.03 0.03 0.03 0.03 0.03 0.03 0.03 0.03 0.03
0.06 0.07 0.05 0.04 0.05 0.05 0.05 0.04 0.04 0.04 0.04 0.05 0.06 0.07 0.07 0.07 0.08 0.07 0.08 0.08 0.08 0.07 0.08 0.06 0.06 0.06 0.04 0.03 0.04 0.05 0.05 0.04 0.03 0.03 0.03 0.03 0.04 0.05
0.07 0.08 0.07 0.07 0.05 0.05 0.05 0.06 0.06 0.07 0.04 0.04 0.05 0.06 0.06 0.06 0.07 0.07 0.07 0.07 0.07 0.07 0.08 0.07 0.06 0.05 0.04 0.04 0.04 0.03 0.02 0.03 0.03 0.02 0.02 0.03 0.04 0.05
0.07 0.09 0.08 0.07 0.06 0.05 0.05 0.05 0.07 0.08 0.06 0.05 0.04 0.05 0.04 0.04 0.05 0.06 0.06 0.06 0.05 0.05 0.07 0.08 0.07 0.07 0.07 0.05 0.04 0.03 0.03 0.02 0.02 0.03 0.02 0.03 0.03 0.03
0.06 0.08 0.07 0.06 0.05 0.04 0.05 0.06 0.06 0.08 0.07 0.06 0.05 0.05 0.04 0.04 0.04 0.04 0.05 0.06 0.05 0.05 0.04 0.06 0.06 0.07 0.06 0.04 0.04 0.04 0.03 0.03 0.03 0.03 0.03 0.02 0.02 0.03
0.05 0.04 0.06 0.07 0.05 0.05 0.06 0.07 0.07 0.08 0.09 0.08 0.06 0.05 0.05 0.04 0.05 0.05 0.05 0.06 0.06 0.05 0.04 0.06 0.07 0.08 0.07 0.04 0.04 0.05 0.05 0.05 0.03 0.03 0.02 0.03 0.03 0.02
0.05 0.04 0.04 0.06 0.06 0.05 0.06 0.08 0.08 0.07 0.07 0.07 0.06 0.05 0.04 0.04 0.04 0.04 0.04 0.05 0.06 0.06 0.06 0.06 0.07 0.07 0.07 0.06 0.05 0.05 0.04 0.03 0.02 0.03 0.03 0.03 0.03 0.03
0.04 0.04 0.03 0.03 0.04 0.05 0.06 0.08 0.08 0.07 0.06 0.05 0.05 0.05 0.05 0.04 0.04 0.04 0.03 0.04 0.04 0.04 0.04 0.05 0.06 0.07 0.07 0.05 0.04 0.03 0.03 0.03 0.02 0.02 0.03 0.02 0.02 0.02
0.02 0.03 0.02 0.02 0.03 0.05 0.06 0.07 0.06 0.06 0.04 0.04 0.05 0.05 0.06 0.06 0.05 0.05 0.05 0.05 0.04 0.04 0.05 0.05 0.07 0.07 0.06 0.06 0.04 0.03 0.03 0.03 0.02 0.02 0.02 0.02 0.02 0.02
0.02 0.03 0.03 0.03 0.04 0.04 0.04 0.04 0.05 0.05 0.05 0.05 0.05 0.05 0.07 0.07 0.06 0.07 0.07 0.06 0.06 0.05 0.05 0.05 0.06 0.07 0.06 0.06 0.05 0.04 0.03 0.02 0.02 0.02 0.02 0.02 0.02 0.02
0.03 0.04 0.04 0.03 0.03 0.02 0.02 0.02 0.03 0.03 0.03 0.03 0.03 0.04 0.04 0.04 0.05 0.06 0.07 0.08 0.07 0.06 0.05 0.05 0.05 0.07 0.07 0.06 0.05 0.05 0.04 0.03 0.03 0.03 0.02 0.02 0.02 0.02
0.03 0.03 0.03 0.03 0.03 0.03 0.03 0.02 0.02 0.02 0.03 0.03 0.03 0.03 0.03 0.03 0.04 0.05 0.06 0.08 0.08 0.06 0.05 0.05 0.06 0.07 0.08 0.06 0.05 0.04 0.05 0.05 0.04 0.04 0.03 0.03 0.03 0.03
0.02 0.02 0.02 0.03 0.03 0.03 0.02 0.02 0.02 0.02 0.03 0.03 0.04 0.05 0.05 0.04 0.04 0.04 0.05 0.07 0.08 0.07 0.06 0.05 0.04 0.05 0.05 0.05 0.05 0.05 0.03 0.04 0.04 0.04 0.03 0.02 0.02 0.02
0.03 0.02 0.02 0.03 0.04 0.03 0.02 0.03 0.03 0.04 0.03 0.03 0.03 0.04 0.04 0.04 0.04 0.04 0.05 0.06 0.06 0.07 0.07 0.05 0.04 0.03 0.03 0.05 0.05 0.05 0.05 0.05 0.04 0.03 0.04 0.04 0.04 0.03
0.05 0.04 0.04 0.04 0.03 0.03 0.03 0.03 0.03 0.03 0.04 0.04 0.03 0.03 0.04 0.04 0.04 0.04 0.04 0.05 0.06 0.06 0.06 0.05 0.04 0.04 0.04 0.04 0.04 0.04 0.04 0.04 0.04 0.04 0.02 0.02 0.02 0.02
0.06 0.06 0.05 0.04 0.03 0.03 0.03 0.03 0.02 0.02 0.02 0.03 0.03 0.03 0.03 0.04 0.04 0.04 0.04 0.04 0.04 0.05 0.06 0.07 0.06 0.05 0.03 0.02 0.03 0.03 0.04 0.05 0.04 0.03 0.03 0.02 0.02 0.01
MSLP
1013.87 1014.13 1014.44 1014.77 1015.07 1015.27 1015.33 1015.25 1015.04 1014.73 1014.39 1014.08 1013.86 1013.74 1013.73 1013.80 1013.90 1013.96 1013.93 1013.79 1013.51 1013.12 1012.68 1012.25 1011.90 1011.71 1011.71 1011.93 1012.36 1012.97 1013.70 1014.51 1015.33 1016.15 1016.92 1017.63 1018.30 1018.92
1013.24 1013.47 1013.76 1014.08 1014.40 1014.65 1014.79 1014.80 1014.68 1014.46 1014.20 1013.93 1013.73 1013.61 1013.58 1013.63 1013.72 1013.80 1013.81 1013.72 1013.52 1013.22 1012.87 1012.51 1012.21 1012.03 1012.02 1012.19 1012.55 1013.07 1013.71 1014.43 1015.18 1015.93 1016.66 1017.34 1017.99 1018.60
1012.58 1012.74 1012.99 1013.29 1013.61 1013.89 1014.10 1014.20 1014.19 1014.07 1013.90 1013.71 1013.55 1013.46 1013.44 1013.49 1013.59 1013.68 1013.73 1013.71 1013.60 1013.40 1013.14 1012.86 1012.63 1012.49 1012.47 1012.61 1012.91 1013.35 1013.90 1014.53 1015.19 1015.85 1016.50 1017.13 1017.73 1018.31
1011.92 1012.02 1012.19 1012.45 1012.75 1013.05 1013.32 1013.50 1013.59 1013.59 1013.53 1013.43 1013.34 1013.29 1013.30 1013.37 1013.48 1013.60 1013.70 1013.74 1013.71 1013.60 1013.45 1013.27 1013.11 1013.02 1013.02 1013.15 1013.40 1013.77 1014.23 1014.76 1015.32 1015.90 1016.46 1017.01 1017.54 1018.06
1011.32 1011.32 1011.42 1011.61 1011.88 1012.19 1012.49 1012.75 1012.93 1013.04 1013.09 1013.09 1013.08 1013.08 1013.13 1013.23 1013.36 1013.51 1013.65 1013.75 1013.80 1013.78 1013.73 1013.64 1013.57 1013.53 1013.57 1013.70 1013.93 1014.24 1014.64 1015.08 1015.55 1016.03 1016.50 1016.97 1017.42 1017.88
1010.78 1010.69 1010.70 1010.82 1011.05 1011.34 1011.66 1011.97 1012.23 1012.43 1012.57 1012.66 1012.73 1012.80 1012.89 1013.01 1013.17 1013.34 1013.52 1013.67 1013.79 1013.86 1013.89 1013.90 1013.91 1013.94 1014.01 1014.16 1014.38 1014.67 1015.01 1015.39 1015.79 1016.20 1016.60 1016.99 1017.38 1017.76
1010.32 1010.14 1010.06 1010.11 1010.27 1010.54 1010.86 1011.19 1011.51 1011.77 1011.99 1012.15 1012.28 1012.40 1012.52 1012.67 1012.84 1013.04 1013.25 1013.44 1013.62 1013.76 1013.87 1013.96 1014.04 1014.14 1014.26 1014.44 1014.66 1014.94 1015.26 1015.61 1015.98 1016.34 1016.69 1017.03 1017.37 1017.71
1009.93 1009.67 1009.52 1009.49 1009.59 1009.81 1010.11 1010.44 1010.78 1011.08 1011.33 1011.54 1011.71 1011.86 1012.00 1012.17 1012.36 1012.57 1012.80 1013.03 1013.25 1013.45 1013.62 1013.78 1013.93 1014.08 1014.26 1014.47 1014.72 1015.02 1015.34 1015.69 1016.04 1016.39 1016.74 1017.06 1017.38 1017.69
1009.63 1009.30 1009.08 1008.98 1009.02 1009.19 1009.44 1009.75 1010.07 1010.37 1010.63 1010.85 1011.03 1011.19 1011.35 1011.52 1011.71 1011.93 1012.17 1012.43 1012.68 1012.93 1013.16 1013.37 1013.58 1013.79 1014.01 1014.26 1014.55 1014.87 1015.22 1015.59 1015.97 1016.34 1016.70 1017.04 1017.36 1017.67
1009.41 1009.04 1008.77 1008.61 1008.59 1008.69 1008.88 1009.13 1009.41 1009.68 1009.92 1010.12 1010.29 1010.44 1010.59 1010.76 1010.95 1011.17 1011.42 1011.70 1011.98 1012.26 1012.53 1012.79 1013.04 1013.30 1013.56 1013.86 1014.18 1014.54 1014.93 1015.34 1015.75 1016.16 1016.56 1016.94 1017.29 1017.62
1009.29 1008.90 1008.58 1008.38 1008.30 1008.33 1008.45 1008.64 1008.85 1009.06 1009.25 1009.41 1009.55 1009.67 1009.80 1009.95 1010.14 1010.36 1010.62 1010.91 1011.21 1011.52 1011.83 1012.12 1012.41 1012.70 1013.00 1013.33 1013.69 1014.08 1014.51 1014.96 1015.42 1015.88 1016.32 1016.74 1017.12 1017.48
1009.27 1008.87 1008.53 1008.29 1008.16 1008.12 1008.17 1008.28 1008.41 1008.55 1008.68 1008.78 1008.87 1008.96 1009.06 1009.19 1009.36 1009.58 1009.85 1010.14 1010.46 1010.79 1011.12 1011.43 1011.75 1012.07 1012.40 1012.75 1013.14 1013.56 1014.02 1014.51 1015.00 1015.50 1015.98 1016.43 1016.84 1017.21
1009.33 1008.94 1008.59 1008.33 1008.14 1008.05 1008.03 1008.06 1008.12 1008.18 1008.23 1008.28 1008.31 1008.36 1008.42 1008.53 1008.68 1008.89 1009.14 1009.44 1009.76 1010.10 1010.44 1010.77 1011.10 1011.43 1011.78 1012.15 1012.55 1013.00 1013.47 1013.98 1014.50 1015.02 1015.52 1015.99 1016.41 1016.78
1009.46 1009.07 1008.73 1008.44 1008.23 1008.09 1008.01 1007.97 1007.96 1007.95 1007.93 1007.91 1007.90 1007.89 1007.92 1007.99 1008.11 1008.29 1008.53 1008.81 1009.12 1009.45 1009.78 1010.11 1010.44 1010.78 1011.13 1011.51 1011.92 1012.37 1012.85 1013.37 1013.90 1014.42 1014.92 1015.39 1015.80 1016.16
1009.59 1009.22 1008.88 1008.59 1008.35 1008.18 1008.06 1007.97 1007.90 1007.83 1007.76 1007.69 1007.62 1007.57 1007.54 1007.57 1007.65 1007.78 1007.98 1008.22 1008.49 1008.79 1009.10 1009.41 1009.73 1010.06 1010.40 1010.78 1011.18 1011.63 1012.12 1012.63 1013.15 1013.67 1014.16 1014.61 1015.00 1015.34
1009.65 1009.31 1008.98 1008.69 1008.45 1008.26 1008.12 1008.00 1007.90 1007.80 1007.69 1007.57 1007.45 1007.35 1007.28 1007.24 1007.26 1007.33 1007.46 1007.63 1007.84 1008.09 1008.35 1008.62 1008.90 1009.20 1009.53 1009.89 1010.29 1010.73 1011.21 1011.71 1012.23 1012.73 1013.21 1013.64 1014.01 1014.32
1009.59 1009.26 1008.96 1008.69 1008.46 1008.29 1008.15 1008.02 1007.91 1007.79 1007.66 1007.52 1007.37 1007.22 1007.08 1006.98 1006.92 1006.90 1006.94 1007.02 1007.14 1007.29 1007.48 1007.68 1007.91 1008.17 1008.47 1008.81 1009.20 1009.63 1010.10 1010.60 1011.12 1011.62 1012.08 1012.50 1012.86 1013.16
1009.34 1009.05 1008.78 1008.54 1008.35 1008.21 1008.09 1007.99 1007.90 1007.79 1007.66 1007.50 1007.32 1007.13 1006.94 1006.76 1006.61 1006.50 1006.42 1006.38 1006.39 1006.43 1006.51 1006.63 1006.79 1006.99 1007.25 1007.56 1007.93 1008.36 1008.83 1009.33 1009.85 1010.35 1010.83 1011.25 1011.61 1011.91
1008.89 1008.64 1008.42 1008.24 1008.10 1008.01 1007.94 1007.89 1007.83 1007.75 1007.64 1007.50 1007.31 1007.09 1006.85 1006.60 1006.36 1006.13 1005.94 1005.77 1005.64 1005.55 1005.52 1005.53 1005.60 1005.74 1005.94 1006.22 1006.58 1007.00 1007.48 1007.98 1008.51 1009.03 1009.52 1009.96 1010.34 1010.67
1008.26 1008.07 1007.91 1007.80 1007.73 1007.70 1007.70 1007.71 1007.72 1007.69 1007.62 1007.50 1007.32 1007.09 1006.82 1006.52 1006.19 1005.87 1005.55 1005.25 1004.98 1004.76 1004.60 1004.50 1004.47 1004.53 1004.68 1004.93 1005.26 1005.67 1006.15 1006.67 1007.21 1007.75 1008.26 1008.73 1009.15 1009.51
1007.50 1007.37 1007.28 1007.24 1007.25 1007.31 1007.39 1007.48 1007.55 1007.59 1007.58 1007.51 1007.36 1007.15 1006.86 1006.52 1006.14 1005.73 1005.30 1004.88 1004.49 1004.14 1003.85 1003.63 1003.51 1003.49 1003.58 1003.78 1004.08 1004.48 1004.96 1005.49 1006.05 1006.60 1007.14 1007.64 1008.09 1008.48
1006.65 1006.60 1006.58 1006.63 1006.72 1006.85 1007.01 1007.19 1007.34 1007.46 1007.53 1007.52 1007.43 1007.25 1006.98 1006.62 1006.20 1005.73 1005.21 1004.69 1004.19 1003.72 1003.31 1002.98 1002.76 1002.66 1002.69 1002.84 1003.12 1003.51 1003.98 1004.51 1005.07 1005.64 1006.20 1006.72 1007.19 1007.62
1005.80 1005.81 1005.86 1005.98 1006.15 1006.36 1006.60 1006.85 1007.09 1007.30 1007.45 1007.52 1007.49 1007.36 1007.12 1006.78 1006.34 1005.82 1005.24 1004.64 1004.03 1003.45 1002.94 1002.51 1002.20 1002.02 1001.99 1002.10 1002.35 1002.72 1003.18 1003.71 1004.28 1004.86 1005.42 1005.95 1006.44 1006.89
Thickness
5710 5709 5709 5709 5709 5708 5707 5703 5697 5692 5693 5698 5700 5704 5703 5702 5700 5699 5698 5697 5695 5693 5691 5690 5688 5687 5686 5685 5683 5682 5681 5679 5678 5677 5676 5674 5673 5671
5707 5705 5705 5705 5705 5704 5703 5702 5699 5693 5689 5693 5694 5696 5697 5697 5696 5695 5694 5692 5691 5689 5688 5686 5685 5684 5682 5680 5679 5678 5676 5675 5674 5673 5671 5670 5669 5667
5702 5701 5701 5701 5700 5700 5699 5697 5694 5691 5685 5687 5689 5690 5689 5690 5690 5689 5688 5687 5685 5684 5683 5682 5680 5679 5677 5676 5674 5672 5671 5670 5669 5667 5666 5665 5664 5663
5697 5696 5696 5696 5694 5694 5692 5690 5688 5687 5683 5679 5680 5681 5682 5683 5683 5682 5683 5682 5681 5680 5678 5677 5676 5674 5672 5670 5669 5667 5666 5665 5663 5662 5661 5660 5659 5657
5693 5691 5690 5689 5688 5687 5686 5684 5682 5682 5679 5675 5673 5674 5675 5676 5675 5676 5676 5676 5676 5674 5673 5671 5670 5669 5667 5665 5663 5662 5661 5660 5658 5657 5656 5655 5654 5653
5688 5687 5685 5684 5682 5681 5680 5678 5676 5674 5672 5670 5668 5668 5667 5669 5668 5666 5665 5667 5668 5669 5667 5666 5665 5663 5662 5660 5658 5657 5656 5655 5653 5652 5651 5650 5649 5648
5682 5681 5680 5679 5678 5676 5675 5672 5670 5667 5665 5663 5662 5661 5660 5658 5658 5659 5656 5658 5660 5661 5659 5659 5659 5658 5657 5655 5653 5652 5651 5649 5648 5647 5646 5645 5644 5643
5676 5676 5675 5674 5673 5671 5670 5667 5665 5662 5660 5658 5656 5654 5653 5653 5652 5652 5649 5649 5648 5653 5651 5651 5653 5652 5652 5650 5649 5648 5647 5645 5644 5643 5641 5640 5639 5638
5671 5670 5671 5671 5668 5666 5664 5662 5660 5659 5657 5654 5651 5649 5648 5648 5646 5645 5644 5643 5644 5647 5645 5644 5646 5645 5647 5646 5645 5644 5642 5641 5639 5637 5636 5635 5634 5633
5667 5666 5665 5665 5664 5660 5659 5657 5656 5655 5653 5651 5649 5648 5646 5645 5643 5641 5640 5640 5642 5642 5642 5638 5640 5640 5642 5642 5641 5640 5638 5636 5635 5633 5632 5631 5629 5628
5662 5662 5661 5659 5657 5655 5653 5652 5651 5650 5649 5647 5645 5644 5642 5640 5638 5636 5635 5633 5633 5636 5637 5634 5634 5634 5635 5636 5636 5635 5634 5632 5631 5629 5628 5626 5624 5622
5656 5655 5654 5653 5651 5649 5648 5647 5645 5644 5644 5643 5640 5640 5639 5637 5636 5633 5631 5629 5629 5629 5632 5630 5629 5628 5627 5630 5631 5630 5628 5627 5626 5625 5624 5622 5619 5616
5650 5649 5648 5647 5645 5644 5642 5642 5641 5639 5639 5638 5637 5637 5636 5635 5633 5632 5630 5628 5626 5625 5628 5627 5625 5624 5622 5622 5624 5625 5625 5623 5622 5620 5619 5617 5615 5613
5644 5644 5642 5640 5639 5639 5638 5637 5636 5635 5635 5634 5633 5633 5632 5631 5631 5630 5629 5627 5626 5626 5626 5625 5622 5620 5618 5617 5617 5619 5619 5619 5618 5617 5615 5613 5611 5609
5638 5637 5636 5635 5634 5634 5633 5632 5631 5630 5630 5629 5629 5629 5629 5629 5628 5627 5626 5625 5624 5624 5625 5624 5621 5620 5618 5615 5615 5615 5614 5614 5614 5613 5611 5609 5607 5605
5631 5631 5631 5630 5631 5630 5629 5628 5627 5627 5626 5625 5625 5626 5626 5625 5624 5623 5621 5620 5619 5619 5621 5620 5619 5617 5614 5614 5613 5611 5611 5610 5610 5608 5607 5605 5604 5602
5626 5627 5627 5627 5627 5627 5627 5626 5625 5624 5622 5621 5621 5620 5620 5619 5619 5619 5618 5616 5614 5614 5614 5615 5615 5614 5613 5611 5608 5608 5608 5607 5606 5604 5602 5600 5600 5599
5621 5623 5623 5624 5624 5624 5623 5623 5621 5620 5618 5617 5616 5616 5615 5614 5614 5614 5613 5612 5610 5610 5610 5610 5610 5608 5607 5608 5607 5605 5604 5603 5602 5601 5599 5596 5595 5595
5617 5619 5619 5620 5621 5621 5620 5619 5617 5616 5615 5613 5612 5611 5611 5610 5609 5609 5608 5607 5606 5606 5606 5606 5605 5603 5600 5599 5602 5602 5600 5599 5597 5596 5594 5592 5591 5591
5616 5616 5616 5617 5617 5616 5615 5614 5613 5612 5611 5609 5607 5606 5606 5605 5604 5603 5603 5602 5601 5601 5601 5602 5601 5599 5597 5595 5596 5598 5597 5596 5593 5591 5589 5588 5587 5586
5614 5614 5613 5613 5613 5612 5610 5609 5608 5607 5605 5604 5602 5602 5601 5600 5599 5598 5597 5595 5595 5596 5596 5596 5597 5597 5596 5595 5593 5594 5593 5592 5591 5588 5586 5583 5581 5579
5609 5609 5608 5608 5607 5606 5605 5604 5602 5601 5600 5599 5597 5596 5596 5594 5593 5592 5591 5590 5590 5591 5591 5592 5593 5593 5592 5590 5589 5589 5589 5588 5586 5584 5582 5580 5576 5574
5603 5602 5601 5601 5600 5599 5598 5597 5595 5594 5592 5591 5590 5589 5589 5588 5587 5586 5586 5585 5585 5586 5586 5587 5588 5588 5588 5587 5586 5585 5585 5583 5581 5578 5576 5575 5573 5572